CW2293 Weather Reports


Display with metric or nautical units.
time (UTC)temp
F
wind
direction
speed
MPH
gust
MPH
rain 1hr
in
rain 24hr
in
rain mn
in
humidity
%
barometer
mb
20240620045802 0 256 1.0 3.0 0.00 0.00 0.00 2 886.4
20240620045306 0 249 2.0 5.0 0.00 0.00 0.00 2 886.4
20240620044804 0 213 1.0 2.0 0.00 0.00 0.00 2 886.4
20240620044303 0 181 0.0 3.0 0.00 0.00 0.00 2 886.4
20240620043803 0 289 1.0 5.0 0.00 0.00 0.00 2 886.4
20240620042802 0 172 1.0 6.0 0.00 0.00 0.00 2 886.4
20240620042306 0 268 1.0 5.0 0.00 0.00 0.00 2 886.4
20240620041803 0 275 0.0 3.0 0.00 0.00 0.00 2 886.4
20240620041302 0 277 2.0 5.0 0.00 0.00 0.00 2 886.4
20240620040804 0 198 2.0 5.0 0.00 0.00 0.00 2 886.4
20240620040302 0 93 2.0 5.0 0.00 0.00 0.00 2 886.4
20240620035306 0 157 2.0 8.0 0.00 0.00 0.00 2 886.4
20240620034802 0 269 2.0 7.0 0.00 0.00 0.00 2 886.4
20240620033803 0 302 1.0 7.0 0.00 0.00 0.00 2 886.4
20240620033302 0 271 1.0 7.0 0.00 0.00 0.00 2 886.4
20240620032802 0 251 2.0 8.0 0.00 0.00 0.00 2 886.4
20240620032306 0 209 2.0 3.0 0.00 0.00 0.00 2 886.4
20240620031802 0 343 2.0 8.0 0.00 0.00 0.00 2 886.4
20240620031302 0 212 1.0 7.0 0.00 0.00 0.00 2 886.4
20240620030804 0 259 2.0 7.0 0.00 0.00 0.00 2 886.4
20240620030302 0 223 2.0 9.0 0.00 0.00 0.00 2 886.4
20240620025803 0 331 1.0 6.0 0.00 0.00 0.00 2 886.4
20240620025306 0 179 1.0 5.0 0.00 0.00 0.00 2 886.4
20240620024802 0 321 1.0 5.0 0.00 0.00 0.00 2 886.4
20240620023802 0 263 2.0 6.0 0.00 0.00 0.00 2 886.4
20240620023304 0 232 2.0 9.0 0.00 0.00 0.00 2 886.4
20240620022802 0 227 2.0 6.0 0.00 0.00 0.00 2 886.4
20240620022306 0 223 3.0 7.0 0.00 0.00 0.00 2 886.4
20240620021802 0 221 3.0 8.0 0.00 0.00 0.00 2 886.4
20240620021302 0 215 2.0 8.0 0.00 0.00 0.00 2 886.4
20240620020803 0 254 1.0 5.0 0.00 0.00 0.00 2 886.4
20240620020303 0 274 2.0 8.0 0.00 0.00 0.00 2 886.4
20240620015802 0 198 1.0 5.0 0.00 0.00 0.00 2 886.4
20240620015305 0 267 1.0 3.0 0.00 0.00 0.00 2 886.4
20240620014802 0 246 2.0 6.0 0.00 0.00 0.00 2 886.4
20240620014304 0 220 2.0 5.0 0.00 0.00 0.00 2 886.4
20240620013303 0 158 1.0 5.0 0.00 0.00 0.00 2 886.4
20240620012803 0 227 1.0 5.0 0.00 0.00 0.00 2 886.4
20240620012305 0 260 3.0 7.0 0.00 0.00 0.00 2 886.4
20240620011803 0 313 1.0 8.0 0.00 0.00 0.00 2 886.4
20240620011303 0 272 2.0 8.0 0.00 0.00 0.00 2 886.4
20240620010803 0 272 3.0 8.0 0.00 0.00 0.00 2 886.4
20240620010303 0 191 2.0 5.0 0.00 0.00 0.00 2 886.4
20240620005804 0 260 1.0 3.0 0.00 0.00 0.00 2 886.4
20240620005306 0 283 2.0 5.0 0.00 0.00 0.00 2 886.4
20240620004804 0 234 1.0 3.0 0.00 0.00 0.00 2 886.4
20240620004302 0 263 2.0 6.0 0.00 0.00 0.00 2 886.4
20240620003803 0 292 1.0 5.0 0.00 0.00 0.00 2 886.4
20240620003302 0 246 1.0 3.0 0.00 0.00 0.00 2 886.4
20240620002803 0 208 4.0 8.0 0.00 0.00 0.00 2 886.4
20240620002306 0 280 1.0 3.0 0.00 0.00 0.00 2 886.4
20240620001803 0 267 2.0 6.0 0.00 0.00 0.00 2 886.4
20240620001303 0 238 2.0 5.0 0.00 0.00 0.00 2 886.4
20240620000802 0 262 3.0 9.0 0.00 0.00 0.00 2 886.4
20240620000303 0 222 3.0 7.0 0.00 0.00 0.00 2 886.4
20240619235803 0 279 3.0 8.0 0.00 0.00 0.00 2 886.4
20240619235306 0 73 2.0 7.0 0.00 0.00 0.00 2 886.4
20240619234802 0 287 3.0 8.0 0.00 0.00 0.00 2 886.4
20240619234302 0 153 1.0 8.0 0.00 0.00 0.00 2 886.4
20240619233803 0 230 3.0 7.0 0.00 0.00 0.00 2 886.4
20240619233304 0 234 1.0 9.0 0.00 0.00 0.00 2 886.4
20240619232803 0 296 2.0 6.0 0.00 0.00 0.00 2 886.4
20240619232305 0 272 2.0 6.0 0.00 0.00 0.00 2 886.4
20240619231802 0 180 2.0 7.0 0.00 0.00 0.00 2 886.4
20240619231302 0 203 2.0 6.0 0.00 0.00 0.00 2 886.4
20240619230804 0 189 3.0 7.0 0.00 0.00 0.00 2 886.4
20240619230303 0 213 2.0 6.0 0.00 0.00 0.00 2 886.4
20240619225804 0 237 1.0 5.0 0.00 0.00 0.00 2 886.4
20240619225306 0 221 1.0 6.0 0.00 0.00 0.00 2 886.4
20240619224803 0 18 2.0 3.0 0.00 0.00 0.00 2 886.4
20240619224302 0 264 3.0 7.0 0.00 0.00 0.00 2 886.4
20240619223803 0 132 0.0 5.0 0.00 0.00 0.00 2 886.4
20240619223302 0 301 1.0 3.0 0.00 0.00 0.00 2 886.4
20240619222803 0 174 2.0 7.0 0.00 0.00 0.00 2 886.4
20240619222306 0 319 2.0 8.0 0.00 0.00 0.00 2 886.4
20240619221804 0 248 2.0 7.0 0.00 0.00 0.00 2 886.4
20240619220304 0 306 1.0 2.0 0.00 0.00 0.00 2 886.4
20240619215803 0 216 2.0 5.0 0.00 0.00 0.00 2 886.4
20240619215305 0 276 2.0 6.0 0.00 0.00 0.00 2 886.4
20240619214802 0 250 1.0 6.0 0.00 0.00 0.00 2 886.4
20240619214303 0 306 1.0 2.0 0.00 0.00 0.00 2 886.4
20240619213804 0 266 1.0 3.0 0.00 0.00 0.00 2 886.4
20240619213304 0 253 1.0 3.0 0.00 0.00 0.00 2 886.4
20240619212803 0 334 2.0 5.0 0.00 0.00 0.00 2 886.4
20240619212306 0 181 1.0 5.0 0.00 0.00 0.00 2 886.4
20240619210802 0 191 1.0 3.0 0.00 0.00 0.00 2 886.4
20240619210302 0 225 2.0 6.0 0.00 0.00 0.00 2 886.4
20240619205802 0 231 2.0 8.0 0.00 0.00 0.00 2 886.4
20240619205305 0 177 2.0 9.0 0.00 0.00 0.00 2 886.4
20240619204803 0 309 1.0 7.0 0.00 0.00 0.00 2 886.4
20240619204303 0 157 2.0 3.0 0.00 0.00 0.00 2 886.4
20240619203803 0 186 3.0 7.0 0.00 0.00 0.00 2 886.4
20240619202804 0 233 3.0 7.0 0.00 0.00 0.00 2 886.4
20240619202306 0 170 2.0 10.0 0.00 0.00 0.00 2 886.4
20240619201302 0 259 3.0 8.0 0.00 0.00 0.00 2 886.4
20240619200802 0 216 3.0 8.0 0.00 0.00 0.00 2 886.4
20240619200302 0 275 3.0 8.0 0.00 0.00 0.00 2 886.4
20240619194803 0 192 3.0 8.0 0.00 0.00 0.00 2 886.4
20240619194302 0 239 2.0 12.0 0.00 0.00 0.00 2 886.4
20240619193304 0 178 3.0 9.0 0.00 0.00 0.00 2 886.4
20240619192802 0 257 2.0 7.0 0.00 0.00 0.00 2 886.4
20240619192305 0 237 2.0 6.0 0.00 0.00 0.00 2 886.4
20240619191803 0 296 5.0 9.0 0.00 0.00 0.00 2 886.4
20240619191303 0 187 2.0 6.0 0.00 0.00 0.00 2 886.4
20240619190802 0 314 3.0 9.0 0.00 0.00 0.00 2 886.4
20240619185803 0 155 3.0 9.0 0.00 0.00 0.00 2 886.4
20240619185306 0 193 2.0 8.0 0.00 0.00 0.00 2 886.4
20240619184803 0 201 3.0 8.0 0.00 0.00 0.00 2 886.4
20240619183804 0 188 4.0 9.0 0.00 0.00 0.00 2 886.4
20240619183303 0 221 3.0 9.0 0.00 0.00 0.00 2 886.4
20240619182803 0 185 3.0 8.0 0.00 0.00 0.00 2 886.4
20240619182306 0 204 3.0 9.0 0.00 0.00 0.00 2 886.4
20240619180804 0 219 5.0 10.0 0.00 0.00 0.00 2 886.4
20240619180304 0 311 3.0 9.0 0.00 0.00 0.00 2 886.4
20240619175802 0 182 2.0 12.0 0.00 0.00 0.00 2 886.4
20240619174803 0 228 2.0 9.0 0.00 0.00 0.00 2 886.4
20240619174302 0 294 3.0 7.0 0.00 0.00 0.00 2 886.4
20240619173802 0 206 3.0 6.0 0.00 0.00 0.00 2 886.4
20240619173303 0 294 3.0 7.0 0.00 0.00 0.00 2 886.4
20240619172804 0 210 3.0 8.0 0.00 0.00 0.00 2 886.4
20240619172305 0 297 3.0 6.0 0.00 0.00 0.00 2 886.4
20240619171803 0 197 3.0 9.0 0.00 0.00 0.00 2 886.4
20240619171304 0 241 1.0 9.0 0.00 0.00 0.00 2 886.4
20240619170803 0 265 3.0 6.0 0.00 0.00 0.00 2 886.4
20240619170303 0 163 2.0 7.0 0.00 0.00 0.00 2 886.4
20240619165803 0 264 3.0 7.0 0.00 0.00 0.00 2 886.4
20240619165305 0 271 2.0 7.0 0.00 0.00 0.00 2 886.4
20240619164802 0 193 1.0 7.0 0.00 0.00 0.00 2 886.4
20240619164302 0 284 2.0 7.0 0.00 0.00 0.00 2 886.4
20240619163803 0 151 2.0 8.0 0.00 0.00 0.00 2 886.4
20240619163303 0 212 3.0 9.0 0.00 0.00 0.00 2 886.4
20240619162803 0 213 3.0 6.0 0.00 0.00 0.00 2 886.4
20240619162307 0 300 4.0 8.0 0.00 0.00 0.00 2 886.4
20240619161804 0 305 3.0 8.0 0.00 0.00 0.00 2 886.4
20240619161303 0 278 4.0 8.0 0.00 0.00 0.00 2 886.4
20240619160803 0 213 3.0 9.0 0.00 0.00 0.00 2 886.4
20240619160302 0 240 3.0 8.0 0.00 0.00 0.00 2 886.4
20240619155306 0 89 2.0 5.0 0.00 0.00 0.00 2 886.4
20240619154804 0 234 4.0 9.0 0.00 0.00 0.00 2 886.4
20240619153802 0 293 2.0 6.0 0.00 0.00 0.00 2 886.4
20240619153304 0 301 3.0 9.0 0.00 0.00 0.00 2 886.4
20240619152803 0 228 3.0 6.0 0.00 0.00 0.00 2 886.4
20240619152306 0 255 4.0 9.0 0.00 0.00 0.00 2 886.4
20240619151803 0 240 3.0 8.0 0.00 0.00 0.00 2 886.4
20240619151303 0 241 2.0 6.0 0.00 0.00 0.00 2 886.4
20240619150802 0 203 3.0 7.0 0.00 0.00 0.00 2 886.4
20240619150302 0 233 2.0 5.0 0.00 0.00 0.00 2 886.4
20240619145802 0 187 2.0 8.0 0.00 0.00 0.00 2 886.4
20240619145306 0 301 2.0 8.0 0.00 0.00 0.00 2 886.4
20240619144803 0 195 4.0 8.0 0.00 0.00 0.00 2 886.4
20240619144302 0 226 3.0 8.0 0.00 0.00 0.00 2 886.4
20240619143803 0 222 3.0 9.0 0.00 0.00 0.00 2 886.4
20240619143304 0 208 2.0 7.0 0.00 0.00 0.00 2 886.4
20240619142803 0 323 3.0 6.0 0.00 0.00 0.00 2 886.4
20240619142306 0 268 1.0 7.0 0.00 0.00 0.00 2 886.4
20240619141802 0 210 3.0 9.0 0.00 0.00 0.00 2 886.4
20240619140803 0 198 1.0 5.0 0.00 0.00 0.00 2 886.4
20240619140303 0 235 2.0 5.0 0.00 0.00 0.00 2 886.4
20240619135803 0 256 2.0 8.0 0.00 0.00 0.00 2 886.4
20240619135305 0 291 3.0 6.0 0.00 0.00 0.00 2 886.4
20240619134803 0 298 3.0 6.0 0.00 0.00 0.00 2 886.4
20240619133804 0 210 3.0 9.0 0.00 0.00 0.00 2 886.4
20240619133302 0 170 3.0 7.0 0.00 0.00 0.00 2 886.4
20240619132804 0 185 3.0 6.0 0.00 0.00 0.00 2 886.4
20240619132306 0 300 2.0 8.0 0.00 0.00 0.00 2 886.4
20240619131802 0 247 2.0 6.0 0.00 0.00 0.00 2 886.4
20240619130803 0 209 2.0 10.0 0.00 0.00 0.00 2 886.4
20240619130303 0 304 3.0 7.0 0.00 0.00 0.00 2 886.4
20240619125804 0 317 3.0 7.0 0.00 0.00 0.00 2 886.4
20240619125306 0 348 2.0 7.0 0.00 0.00 0.00 2 886.4
20240619124804 0 312 2.0 7.0 0.00 0.00 0.00 2 886.4
20240619124302 0 235 2.0 6.0 0.00 0.00 0.00 2 886.4
20240619123804 0 322 1.0 5.0 0.00 0.00 0.00 2 886.4
20240619123303 0 268 2.0 5.0 0.00 0.00 0.00 2 886.4
20240619122803 0 223 3.0 6.0 0.00 0.00 0.00 2 886.4
20240619122306 0 238 2.0 7.0 0.00 0.00 0.00 2 886.4
20240619121803 0 282 3.0 8.0 0.00 0.00 0.00 2 886.4
20240619121302 0 285 2.0 5.0 0.00 0.00 0.00 2 886.4
20240619120803 0 302 4.0 10.0 0.00 0.00 0.00 2 886.4
20240619120303 0 332 3.0 7.0 0.00 0.00 0.00 2 886.4
20240619115804 0 250 1.0 5.0 0.00 0.00 0.00 2 886.4
20240619114803 0 284 2.0 8.0 0.00 0.00 0.00 2 886.4
20240619113804 0 228 2.0 8.0 0.00 0.00 0.00 2 886.4
20240619113303 0 292 2.0 6.0 0.00 0.00 0.00 2 886.4
20240619112803 0 254 2.0 5.0 0.00 0.00 0.00 2 886.4
20240619112305 0 198 2.0 6.0 0.00 0.00 0.00 2 886.4
20240619111803 0 334 1.0 5.0 0.00 0.00 0.00 2 886.4
20240619111302 0 287 2.0 6.0 0.00 0.00 0.00 2 886.4
20240619110802 0 222 1.0 5.0 0.00 0.00 0.00 2 886.4
20240619110303 0 229 1.0 6.0 0.00 0.00 0.00 2 886.4
20240619105803 0 218 1.0 3.0 0.00 0.00 0.00 2 886.4
20240619105305 0 213 2.0 5.0 0.00 0.00 0.00 2 886.4
20240619104803 0 333 2.0 7.0 0.00 0.00 0.00 2 886.4
20240619102803 0 242 2.0 7.0 0.00 0.00 0.00 2 886.4
20240619102306 0 62 1.0 3.0 0.00 0.00 0.00 2 886.4
20240619101803 0 233 2.0 5.0 0.00 0.00 0.00 2 886.4
20240619101303 0 194 1.0 7.0 0.00 0.00 0.00 2 886.4
20240619100803 0 246 2.0 7.0 0.00 0.00 0.00 2 886.4
20240619100303 0 109 1.0 6.0 0.00 0.00 0.00 2 886.4
20240619095804 0 238 2.0 6.0 0.00 0.00 0.00 2 886.4
20240619095305 0 44 2.0 8.0 0.00 0.00 0.00 2 886.4
20240619094804 0 155 4.0 7.0 0.00 0.00 0.00 2 886.4
20240619094304 0 241 1.0 7.0 0.00 0.00 0.00 2 886.4
20240619093804 0 209 2.0 10.0 0.00 0.00 0.00 2 886.4
20240619092804 0 248 2.0 7.0 0.00 0.00 0.00 2 886.4
20240619092305 0 203 2.0 6.0 0.00 0.00 0.00 2 886.4
20240619091803 0 72 1.0 2.0 0.00 0.00 0.00 2 886.4
20240619091302 0 18 3.0 7.0 0.00 0.00 0.00 2 886.4
20240619090804 0 236 1.0 5.0 0.00 0.00 0.00 2 886.4
20240619090303 0 133 1.0 5.0 0.00 0.00 0.00 2 886.4
20240619085803 0 315 2.0 6.0 0.00 0.00 0.00 2 886.4
20240619084803 0 223 0.0 5.0 0.00 0.00 0.00 2 886.4
20240619084304 0 165 3.0 7.0 0.00 0.00 0.00 2 886.4
20240619083804 0 215 2.0 5.0 0.00 0.00 0.00 2 886.4
20240619083303 0 192 1.0 3.0 0.00 0.00 0.00 2 886.4
20240619082305 0 227 2.0 6.0 0.00 0.00 0.00 2 886.4
20240619081803 0 275 2.0 5.0 0.00 0.00 0.00 2 886.4
20240619080803 0 244 3.0 6.0 0.00 0.00 0.00 2 886.4
20240619080303 0 278 2.0 5.0 0.00 0.00 0.00 2 886.4
20240619075803 0 215 1.0 6.0 0.00 0.00 0.00 2 886.4
20240619075306 0 197 0.0 2.0 0.00 0.00 0.00 2 886.4
20240619074303 0 332 2.0 2.0 0.00 0.00 0.00 2 886.4
20240619073802 0 184 1.0 3.0 0.00 0.00 0.00 2 886.4
20240619073305 0 234 1.0 2.0 0.00 0.00 0.00 2 886.4
20240619072803 0 213 1.0 3.0 0.00 0.00 0.00 2 886.4
20240619072306 0 344 1.0 2.0 0.00 0.00 0.00 2 886.4
20240619071803 0 309 0.0 3.0 0.00 0.00 0.00 2 886.4
20240619071304 0 203 1.0 3.0 0.00 0.00 0.00 2 886.4
20240619070804 0 269 1.0 5.0 0.00 0.00 0.00 2 886.4
20240619070303 0 182 1.0 8.0 0.00 0.00 0.00 2 886.4
20240619065803 0 200 2.0 5.0 0.00 0.00 0.00 2 886.4
20240619065306 0 181 1.0 6.0 0.00 0.00 0.00 2 886.4
20240619064804 0 298 2.0 5.0 0.00 0.00 0.00 2 886.4
20240619064303 0 255 1.0 3.0 0.00 0.00 0.00 2 886.4
20240619063803 0 200 2.0 6.0 0.00 0.00 0.00 2 886.4
20240619063303 0 243 3.0 6.0 0.00 0.00 0.00 2 886.4
20240619062804 0 188 2.0 7.0 0.00 0.00 0.00 2 886.4
20240619062305 0 56 1.0 5.0 0.00 0.00 0.00 2 886.4
20240619061803 0 285 2.0 5.0 0.00 0.00 0.00 2 886.4
20240619061302 0 261 1.0 3.0 0.00 0.00 0.00 2 886.4
20240619060802 0 291 1.0 3.0 0.00 0.00 0.00 2 886.4
20240619060302 0 120 1.0 2.0 0.00 0.00 0.00 2 886.4
20240619055802 0 299 0.0 3.0 0.00 0.00 0.00 2 886.4
20240619055305 0 261 2.0 7.0 0.00 0.00 0.00 2 886.4
20240619054803 0 32 1.0 3.0 0.00 0.00 0.00 2 886.4
20240619054304 0 314 1.0 3.0 0.00 0.00 0.00 2 886.4
20240619053803 0 274 1.0 3.0 0.00 0.00 0.00 2 886.4
20240619053304 0 205 2.0 5.0 0.00 0.00 0.00 2 886.4
20240619052803 0 211 4.0 7.0 0.00 0.00 0.00 2 886.4
20240619052306 0 264 2.0 5.0 0.00 0.00 0.00 2 886.4
20240619051803 0 230 2.0 6.0 0.00 0.00 0.00 2 886.4
20240619051303 0 311 3.0 7.0 0.00 0.00 0.00 2 886.4
20240619050805 0 192 3.0 9.0 0.00 0.00 0.00 2 886.4